Location: Gugi
(45.4667°N, 11.1000°E)
Time: 05:19:16
(UTC+00:00)

Cosmos 724 - Pass Details

Date: 17 November 2019
Orbit: 861 x 934 km, 65.6° (Epoch: 10 December)

Event Time Altitude Azimuth Distance (km) Brightness Sun altitude
Rises 16:51:19 0° 327° (NNW) 3,489 7.6 -11.9°
Reaches altitude 10° 16:53:55 10° 332° (NNW) 2,537 6.9 -12.3°
Maximum altitude 16:59:38 52° 49° (NE) 1,074 4.4 -13.3°
Drops below altitude 10° 17:05:15 10° 125° (SE) 2,496 6.3 -14.2°
Enters shadow 17:06:21 - 128° (SE) 2,896 6.6 -14.4°
